Time,TemperatureF,DewpointF,PressureIn,WindDirection,WindDirectionDegrees,WindSpeedMPH,WindSpeedGustMPH,Humidity,HourlyPrecipIn,Conditions,Clouds,dailyrainin,SoftwareType,DateUTC
2013-07-28 00:12:00,50.1,48.0,29.83,North,5,0.0,-999.0,91,-99.99,,,0.00,weatherlink.com 1.10,2013-07-28 05:12:00,
2013-07-28 00:27:00,49.4,47.0,29.84,North,5,1.0,-999.0,91,-99.99,,,0.00,weatherlink.com 1.10,2013-07-28 05:27:00,
2013-07-28 00:42:00,49.1,47.0,29.84,NNE,13,0.0,-999.0,91,-99.99,,,0.00,weatherlink.com 1.10,2013-07-28 05:42:00,
2013-07-28 00:57:00,49.1,47.0,29.84,NW,322,0.0,-999.0,92,-99.99,,,0.00,weatherlink.com 1.10,2013-07-28 05:57:00,
2013-07-28 01:12:00,49.1,47.0,29.84,North,360,0.0,-999.0,92,-99.99,,,0.00,weatherlink.com 1.10,2013-07-28 06:12:00,
2013-07-28 01:27:00,49.1,47.0,29.84,East,100,0.0,-999.0,92,-99.99,,,0.00,weatherlink.com 1.10,2013-07-28 06:27:00,
2013-07-28 01:42:00,48.9,47.0,29.84,NE,53,0.0,-999.0,92,-99.99,,,0.00,weatherlink.com 1.10,2013-07-28 06:42:00,
2013-07-28 01:57:00,48.8,47.0,29.84,NE,53,0.0,-999.0,92,-99.99,,,0.00,weatherlink.com 1.10,2013-07-28 06:57:00,
2013-07-28 02:12:00,48.6,46.0,29.84,NE,53,0.0,-999.0,92,-99.99,,,0.00,weatherlink.com 1.10,2013-07-28 07:12:00,
2013-07-28 02:27:00,48.3,46.0,29.84,NE,53,0.0,-999.0,92,-99.99,,,0.00,weatherlink.com 1.10,2013-07-28 07:27:00,
2013-07-28 02:42:00,48.2,46.0,29.84,NE,53,0.0,-999.0,92,-99.99,,,0.00,weatherlink.com 1.10,2013-07-28 07:42:00,
2013-07-28 02:57:00,48.0,46.0,29.84,NE,53,0.0,-999.0,92,-99.99,,,0.00,weatherlink.com 1.10,2013-07-28 07:57:00,
2013-07-28 03:13:00,48.0,46.0,29.84,NE,53,0.0,-999.0,93,-99.99,,,0.00,weatherlink.com 1.10,2013-07-28 08:13:00,
2013-07-28 03:28:00,48.0,46.0,29.84,NE,53,0.0,-999.0,93,-99.99,,,0.00,weatherlink.com 1.10,2013-07-28 08:28:00,
2013-07-28 03:43:00,47.9,46.0,29.84,NE,53,0.0,-999.0,93,-99.99,,,0.00,weatherlink.com 1.10,2013-07-28 08:43:00,
2013-07-28 03:58:00,48.0,46.0,29.84,NE,53,0.0,-999.0,94,-99.99,,,0.00,weatherlink.com 1.10,2013-07-28 08:58:00,
2013-07-28 04:13:00,48.5,47.0,29.84,NE,53,0.0,-999.0,95,-99.99,,,0.00,weatherlink.com 1.10,2013-07-28 09:13:00,
2013-07-28 04:28:00,48.8,48.0,29.84,NE,53,0.0,-999.0,95,-99.99,,,0.00,weatherlink.com 1.10,2013-07-28 09:28:00,
2013-07-28 04:43:00,49.2,48.0,29.84,NE,53,0.0,-999.0,96,-99.99,,,0.00,weatherlink.com 1.10,2013-07-28 09:43:00,
2013-07-28 04:58:00,49.5,48.0,29.84,NE,53,0.0,-999.0,96,-99.99,,,0.00,weatherlink.com 1.10,2013-07-28 09:58:00,
2013-07-28 05:13:00,49.8,49.0,29.84,NE,53,0.0,-999.0,96,-99.99,,,0.00,weatherlink.com 1.10,2013-07-28 10:13:00,
2013-07-28 05:28:00,50.2,49.0,29.85,North,10,0.0,-999.0,96,-99.99,,,0.00,weatherlink.com 1.10,2013-07-28 10:28:00,
2013-07-28 05:43:00,50.5,49.0,29.85,NE,51,0.0,-999.0,96,-99.99,,,0.00,weatherlink.com 1.10,2013-07-28 10:43:00,
2013-07-28 05:58:00,50.8,50.0,29.85,North,11,0.0,-999.0,96,-99.99,,,0.00,weatherlink.com 1.10,2013-07-28 10:58:00,
2013-07-28 06:13:00,51.0,50.0,29.85,East,87,0.0,-999.0,96,-99.99,,,0.00,weatherlink.com 1.10,2013-07-28 11:13:00,
2013-07-28 06:28:00,51.1,50.0,29.86,North,350,3.0,-999.0,96,-99.99,,,0.01,weatherlink.com 1.10,2013-07-28 11:28:00,
2013-07-28 06:43:00,51.3,50.0,29.86,NE,53,0.0,-999.0,96,-99.99,,,0.01,weatherlink.com 1.10,2013-07-28 11:43:00,
2013-07-28 06:58:00,51.4,51.0,29.85,North,355,1.0,-999.0,97,-99.99,,,0.01,weatherlink.com 1.10,2013-07-28 11:58:00,
2013-07-28 07:13:00,51.6,51.0,29.86,North,355,0.0,-999.0,97,-99.99,,,0.01,weatherlink.com 1.10,2013-07-28 12:13:00,
2013-07-28 07:29:00,51.7,51.0,29.87,NNE,20,0.0,-999.0,96,-99.99,,,0.01,weatherlink.com 1.10,2013-07-28 12:29:00,
2013-07-28 07:43:00,51.7,51.0,29.87,WSW,243,0.0,-999.0,96,-99.99,,,0.01,weatherlink.com 1.10,2013-07-28 12:43:00,
2013-07-28 07:59:00,51.9,51.0,29.87,NNE,20,0.0,-999.0,96,-99.99,,,0.01,weatherlink.com 1.10,2013-07-28 12:59:00,
2013-07-28 08:14:00,52.0,51.0,29.87,North,360,1.0,-999.0,96,-99.99,,,0.01,weatherlink.com 1.10,2013-07-28 13:14:00,
2013-07-28 08:29:00,52.2,51.0,29.87,NNE,32,0.0,-999.0,96,-99.99,,,0.01,weatherlink.com 1.10,2013-07-28 13:29:00,
2013-07-28 08:44:00,52.3,51.0,29.87,West,261,0.0,-999.0,95,-99.99,,,0.01,weatherlink.com 1.10,2013-07-28 13:44:00,
2013-07-28 08:59:00,52.8,52.0,29.87,NNE,29,0.0,-999.0,95,-99.99,,,0.01,weatherlink.com 1.10,2013-07-28 13:59:00,
2013-07-28 09:14:00,53.1,52.0,29.87,North,10,1.0,-999.0,94,-99.99,,,0.01,weatherlink.com 1.10,2013-07-28 14:14:00,
2013-07-28 09:59:00,54.2,51.0,29.87,North,360,1.0,-999.0,90,-99.99,,,0.01,weatherlink.com 1.10,2013-07-28 14:59:00,
2013-07-28 10:14:00,55.1,52.0,29.87,West,267,0.0,-999.0,89,-99.99,,,0.01,weatherlink.com 1.10,2013-07-28 15:14:00,
2013-07-28 10:29:00,55.7,51.0,29.87,NE,49,1.0,-999.0,84,-99.99,,,0.01,weatherlink.com 1.10,2013-07-28 15:29:00,
2013-07-28 10:44:00,56.0,51.0,29.88,West,273,0.0,-999.0,83,-99.99,,,0.01,weatherlink.com 1.10,2013-07-28 15:44:00,
2013-07-28 10:59:00,56.3,51.0,29.88,NW,320,0.0,-999.0,82,-99.99,,,0.01,weatherlink.com 1.10,2013-07-28 15:59:00,
2013-07-28 11:14:00,56.7,51.0,29.88,SW,233,4.0,-999.0,82,-99.99,,,0.01,weatherlink.com 1.10,2013-07-28 16:14:00,
2013-07-28 11:29:00,57.5,51.0,29.88,NW,323,1.0,-999.0,80,-99.99,,,0.01,weatherlink.com 1.10,2013-07-28 16:29:00,
2013-07-28 11:44:00,58.3,51.0,29.88,West,271,0.0,-999.0,78,-99.99,,,0.01,weatherlink.com 1.10,2013-07-28 16:44:00,
2013-07-28 11:59:00,58.9,52.0,29.89,North,360,2.0,-999.0,77,-99.99,,,0.01,weatherlink.com 1.10,2013-07-28 16:59:00,
2013-07-28 12:14:00,59.6,53.0,29.89,WSW,238,1.0,-999.0,78,-99.99,,,0.01,weatherlink.com 1.10,2013-07-28 17:14:00,
2013-07-28 12:29:00,60.1,51.0,29.89,ENE,65,0.0,-999.0,72,-99.99,,,0.01,weatherlink.com 1.10,2013-07-28 17:29:00,
2013-07-28 12:45:00,60.5,52.0,29.90,West,267,0.0,-999.0,73,-99.99,,,0.01,weatherlink.com 1.10,2013-07-28 17:45:00,
2013-07-28 13:00:00,60.9,51.0,29.89,North,5,1.0,-999.0,70,-99.99,,,0.01,weatherlink.com 1.10,2013-07-28 18:00:00,
2013-07-28 13:14:00,61.8,52.0,29.89,WSW,253,0.0,-999.0,70,-99.99,,,0.01,weatherlink.com 1.10,2013-07-28 18:14:00,
2013-07-28 13:29:00,63.5,53.0,29.90,ESE,109,3.0,-999.0,69,-99.99,,,0.01,weatherlink.com 1.10,2013-07-28 18:29:00,
2013-07-28 13:44:00,64.3,52.0,29.89,NNE,24,3.0,-999.0,65,-99.99,,,0.01,weatherlink.com 1.10,2013-07-28 18:44:00,
2013-07-28 13:59:00,64.5,54.0,29.90,West,259,4.0,-999.0,68,-99.99,,,0.01,weatherlink.com 1.10,2013-07-28 18:59:00,
2013-07-28 14:14:00,64.5,51.0,29.89,WSW,249,0.0,-999.0,63,-99.99,,,0.01,weatherlink.com 1.10,2013-07-28 19:14:00,
2013-07-28 14:29:00,64.0,51.0,29.90,NNE,13,1.0,-999.0,64,-99.99,,,0.01,weatherlink.com 1.10,2013-07-28 19:29:00,
2013-07-28 14:44:00,64.5,52.0,29.90,West,269,0.0,-999.0,64,-99.99,,,0.01,weatherlink.com 1.10,2013-07-28 19:44:00,
2013-07-28 14:59:00,64.8,53.0,29.90,North,11,5.0,-999.0,65,-99.99,,,0.01,weatherlink.com 1.10,2013-07-28 19:59:00,
2013-07-28 15:15:00,65.3,52.0,29.89,NE,43,0.0,-999.0,63,-99.99,,,0.01,weatherlink.com 1.10,2013-07-28 20:15:00,
2013-07-28 15:30:00,66.9,52.0,29.89,North,9,4.0,-999.0,60,-99.99,,,0.01,weatherlink.com 1.10,2013-07-28 20:30:00,
2013-07-28 15:45:00,67.3,52.0,29.89,NNE,25,3.0,-999.0,59,-99.99,,,0.01,weatherlink.com 1.10,2013-07-28 20:45:00,
2013-07-28 16:00:00,66.8,53.0,29.89,North,355,2.0,-999.0,62,-99.99,,,0.01,weatherlink.com 1.10,2013-07-28 21:00:00,
2013-07-28 16:15:00,68.1,54.0,29.89,West,273,0.0,-999.0,60,-99.99,,,0.01,weatherlink.com 1.10,2013-07-28 21:15:00,
2013-07-28 16:30:00,69.1,52.0,29.89,WNW,299,0.0,-999.0,54,-99.99,,,0.01,weatherlink.com 1.10,2013-07-28 21:30:00,
2013-07-28 16:45:00,69.3,54.0,29.89,North,9,6.0,-999.0,58,-99.99,,,0.01,weatherlink.com 1.10,2013-07-28 21:45:00,
2013-07-28 17:00:00,68.8,52.0,29.89,NNE,25,3.0,-999.0,55,-99.99,,,0.01,weatherlink.com 1.10,2013-07-28 22:00:00,
2013-07-28 17:15:00,68.6,53.0,29.89,NNE,23,0.0,-999.0,57,-99.99,,,0.01,weatherlink.com 1.10,2013-07-28 22:15:00,
2013-07-28 17:30:00,67.9,53.0,29.89,NNE,28,0.0,-999.0,60,-99.99,,,0.01,weatherlink.com 1.10,2013-07-28 22:30:00,
2013-07-28 17:45:00,67.6,54.0,29.89,ENE,61,0.0,-999.0,62,-99.99,,,0.01,weatherlink.com 1.10,2013-07-28 22:45:00,
2013-07-28 18:00:00,67.1,53.0,29.90,NNE,32,0.0,-999.0,60,-99.99,,,0.01,weatherlink.com 1.10,2013-07-28 23:00:00,
2013-07-28 18:15:00,66.8,53.0,29.89,NNE,31,0.0,-999.0,61,-99.99,,,0.01,weatherlink.com 1.10,2013-07-28 23:15:00,
2013-07-28 18:30:00,66.8,53.0,29.90,NNE,31,0.0,-999.0,62,-99.99,,,0.01,weatherlink.com 1.10,2013-07-28 23:30:00,
2013-07-28 18:45:00,66.4,54.0,29.90,North,9,1.0,-999.0,65,-99.99,,,0.01,weatherlink.com 1.10,2013-07-28 23:45:00,
2013-07-28 19:00:00,66.0,54.0,29.90,North,9,1.0,-999.0,65,-99.99,,,0.01,weatherlink.com 1.10,2013-07-29 00:00:00,
2013-07-28 19:15:00,65.8,54.0,29.91,North,9,0.0,-999.0,66,-99.99,,,0.01,weatherlink.com 1.10,2013-07-29 00:15:00,
2013-07-28 19:30:00,65.5,53.0,29.92,NNE,17,1.0,-999.0,65,-99.99,,,0.01,weatherlink.com 1.10,2013-07-29 00:30:00,
2013-07-28 19:45:00,65.0,53.0,29.92,NNE,17,2.0,-999.0,66,-99.99,,,0.01,weatherlink.com 1.10,2013-07-29 00:45:00,
2013-07-28 20:00:00,64.5,53.0,29.92,NNE,17,0.0,-999.0,67,-99.99,,,0.01,weatherlink.com 1.10,2013-07-29 01:00:00,
2013-07-28 20:15:00,63.9,53.0,29.93,NNE,30,0.0,-999.0,68,-99.99,,,0.01,weatherlink.com 1.10,2013-07-29 01:15:00,
2013-07-28 20:30:00,63.1,53.0,29.93,NNE,30,0.0,-999.0,69,-99.99,,,0.01,weatherlink.com 1.10,2013-07-29 01:30:00,
2013-07-28 21:00:00,60.7,52.0,29.94,NNE,30,0.0,-999.0,73,-99.99,,,0.01,weatherlink.com 1.10,2013-07-29 02:00:00,
2013-07-28 21:16:00,59.5,52.0,29.95,NNE,30,0.0,-999.0,76,-99.99,,,0.01,weatherlink.com 1.10,2013-07-29 02:16:00,
2013-07-28 21:31:00,58.6,51.0,29.96,NNE,30,0.0,-999.0,77,-99.99,,,0.01,weatherlink.com 1.10,2013-07-29 02:31:00,
2013-07-28 21:46:00,58.0,52.0,29.96,NNE,30,0.0,-999.0,79,-99.99,,,0.01,weatherlink.com 1.10,2013-07-29 02:46:00,
2013-07-28 22:16:00,57.2,51.0,29.96,NNE,30,0.0,-999.0,81,-99.99,,,0.01,weatherlink.com 1.10,2013-07-29 03:16:00,
2013-07-28 22:46:00,56.2,51.0,29.96,NNE,30,0.0,-999.0,83,-99.99,,,0.01,weatherlink.com 1.10,2013-07-29 03:46:00,
2013-07-28 23:01:00,55.4,51.0,29.96,NNE,30,0.0,-999.0,84,-99.99,,,0.01,weatherlink.com 1.10,2013-07-29 04:01:00,
2013-07-28 23:16:00,54.8,50.0,29.97,NNE,30,0.0,-999.0,85,-99.99,,,0.01,weatherlink.com 1.10,2013-07-29 04:16:00,
2013-07-28 23:31:00,54.2,50.0,29.97,NNE,30,0.0,-999.0,86,-99.99,,,0.01,weatherlink.com 1.10,2013-07-29 04:31:00,
2013-07-28 23:46:00,53.6,50.0,29.98,NNE,30,0.0,-999.0,86,-99.99,,,0.01,weatherlink.com 1.10,2013-07-29 04:46:00,